Date String (YYYY-MM-DD hh:mm:ss) UTC,Instrument flags,absolute air pressure of the measurement (hPa),sample flow rate (lpm),inlet stack bypass flow (lpm),air temperature of the measurement (°C),ambient temperature measured by the external sensor (°C),aerosol sample conditioner tube jacket temperature (°C),OPC LED temperature (°C),internal box temperature (°C),relative humidity of the measurement (%),span deviation,mass concentration of particles derived from Lorenz-Mie calculation of OPC scattering (μg/m³),mass concentration of particles derived from Lorenz-Mie calculation of OPC scattering (μg/m³),mass concentration of particles derived from Lorenz-Mie calculation of OPC scattering (μg/m³)
DateTimeUTC,F1_M11,P_M11,Q1_M11,Q2_M11,T1_M11,T2_M11,T3_M11,T4_M11,T5_M11,U1_M11,ZSPAN_M11,X0_M11,X2_M11,X1_M11
2024-05-09 13:00:00,SystemResetWarning,0831.6,5.00,000.00,024.7,023.9,000.0,033.3,026.6,015.4,0000.0,0009.82,0001.66,0000.93
2024-05-09 13:01:00,SystemResetWarning,0831.6,5.01,000.00,024.7,023.9,000.0,033.3,026.6,015.5,0000.0,0009.08,0001.63,0000.89
2024-05-09 13:02:00,SystemResetWarning,0831.6,5.00,000.00,024.7,023.9,000.0,033.3,026.6,015.6,0000.0,0008.89,0001.66,0000.86
2024-05-09 13:03:00,SystemResetWarning,0831.6,5.00,000.00,024.7,023.9,000.0,033.3,026.6,015.6,0000.0,0009.31,0001.68,0000.83
2024-05-09 13:04:00,SystemResetWarning,0831.6,5.01,000.00,024.7,023.9,000.0,033.3,026.5,015.6,0000.0,0010.60,0001.64,0000.81
2024-05-09 13:05:00,SystemResetWarning,0831.6,4.99,000.00,024.7,023.9,000.0,033.3,026.5,015.2,0000.0,0010.68,0001.60,0000.79
2024-05-09 13:06:00,SystemResetWarning,0831.6,4.98,000.00,024.7,024.0,000.0,033.3,026.5,014.9,0000.0,0010.15,0001.57,0000.75
2024-05-09 13:07:00,SystemResetWarning,0831.7,5.00,000.00,024.7,024.0,000.0,033.3,026.5,015.1,0000.0,0010.07,0001.55,0000.71
2024-05-09 13:08:00,SystemResetWarning,0831.7,5.02,000.00,024.7,024.0,000.0,033.2,026.5,015.0,0000.0,0008.95,0001.51,0000.68
2024-05-09 13:09:00,SystemResetWarning,0831.7,4.99,000.00,024.7,024.0,000.0,033.2,026.6,014.9,0000.0,0008.10,0001.42,0000.65
2024-05-09 13:10:00,SystemResetWarning,0831.7,4.99,000.00,024.7,024.0,000.0,033.2,026.6,014.7,0000.0,0007.94,0001.37,0000.63
2024-05-09 13:11:00,SystemResetWarning,0831.7,5.00,000.00,024.7,024.0,000.0,033.2,026.6,014.5,0000.0,0007.86,0001.32,0000.61
2024-05-09 13:12:00,SystemResetWarning,0831.7,5.00,000.00,024.7,024.0,000.0,033.2,026.6,014.6,0000.0,0007.86,0001.28,0000.58
2024-05-09 13:13:00,SystemResetWarning,0831.7,5.00,000.00,024.7,024.0,000.0,033.2,026.6,014.6,0000.0,0007.76,0001.20,0000.56
2024-05-09 13:14:00,SystemResetWarning,0831.7,5.00,000.00,024.7,024.0,000.0,033.2,026.6,014.6,0000.0,0007.51,0001.17,0000.56
2024-05-09 13:15:00,SystemResetWarning,0831.7,5.00,000.00,024.7,024.0,000.0,033.2,026.6,014.8,0000.0,0007.18,0001.16,0000.56
2024-05-09 13:16:00,SystemResetWarning,0832.1,5.00,000.00,024.7,024.0,000.0,033.2,026.6,014.7,0000.0,0005.59,0001.14,0000.55
2024-05-09 13:17:00,SystemResetWarning,0832.1,5.00,000.00,024.7,024.0,000.0,033.2,026.6,014.7,0000.0,0005.61,0001.11,0000.54
2024-05-09 13:18:00,SystemResetWarning,0832.1,5.00,000.00,024.7,024.1,000.0,033.2,026.6,014.7,0000.0,0007.61,0001.11,0000.54
2024-05-09 13:19:00,SystemResetWarning,0832.1,5.00,000.00,024.8,024.1,000.0,033.2,026.5,014.8,0000.0,0007.61,0001.08,0000.54
2024-05-09 13:20:00,SystemResetWarning,0831.9,5.00,000.00,024.8,024.1,000.0,033.2,026.6,014.8,0000.0,0008.42,0001.11,0000.54
2024-05-09 13:21:00,SystemResetWarning,0831.8,5.00,000.00,024.8,024.1,000.0,033.2,026.5,014.9,0000.0,0009.16,0001.17,0000.54
2024-05-09 13:22:00,SystemResetWarning,0831.8,5.00,000.00,024.8,024.1,000.0,033.2,026.5,014.8,0000.0,0011.41,0001.20,0000.54
2024-05-09 13:23:00,SystemResetWarning,0831.9,5.00,000.00,024.8,024.1,000.0,033.2,026.6,014.8,0000.0,0012.24,0001.21,0000.54
2024-05-09 13:24:00,SystemResetWarning,0831.8,5.00,000.00,024.8,024.1,000.0,033.1,026.6,014.9,0000.0,0013.07,0001.25,0000.55
2024-05-09 13:25:00,SystemResetWarning,0831.8,5.00,000.00,024.8,024.1,000.0,033.1,026.6,015.1,0000.0,0012.99,0001.19,0000.55
2024-05-09 13:26:00,SystemResetWarning,0831.8,5.00,000.00,024.8,024.1,000.0,033.1,026.6,014.9,0000.0,0012.26,0001.15,0000.55
2024-05-09 13:27:00,SystemResetWarning,0831.9,5.00,000.00,024.8,024.1,000.0,033.2,026.6,015.0,0000.0,0012.17,0001.18,0000.56
2024-05-09 13:28:00,SystemResetWarning,0831.9,5.00,000.00,024.8,024.1,000.0,033.1,026.6,015.1,0000.0,0012.44,0001.24,0000.57
2024-05-09 13:29:00,SystemResetWarning,0831.9,5.00,000.00,024.8,024.1,000.0,033.1,026.6,015.4,0000.0,0011.58,0001.26,0000.58
2024-05-09 13:30:00,SystemResetWarning,0831.9,4.99,000.00,024.8,024.2,000.0,033.1,026.6,015.1,0000.0,0011.34,0001.30,0000.59
2024-05-09 13:31:00,SystemResetWarning,0831.9,4.99,000.00,024.8,024.2,000.0,033.1,026.6,014.6,0000.0,0010.78,0001.31,0000.60
2024-05-09 13:32:00,SystemResetWarning,0831.9,5.01,000.00,024.8,024.2,000.0,033.2,026.6,014.9,0000.0,0010.50,0001.26,0000.60
2024-05-09 13:33:00,SystemResetWarning,0832.0,5.01,000.00,024.8,024.2,000.0,033.2,026.6,015.1,0000.0,0008.54,0001.27,0000.61
2024-05-09 13:34:00,SystemResetWarning,0832.0,5.01,000.00,024.8,024.1,000.0,033.2,026.6,014.9,0000.0,0008.17,0001.30,0000.63
2024-05-09 13:35:00,SystemResetWarning,0832.0,5.00,000.00,024.8,024.1,000.0,033.2,026.6,014.8,0000.0,0007.50,0001.30,0000.64
2024-05-09 13:36:00,SystemResetWarning,0832.0,4.99,000.00,024.8,024.1,000.0,033.2,026.6,015.2,0000.0,0007.54,0001.36,0000.65
2024-05-09 13:37:00,SystemResetWarning,0832.0,4.99,000.00,024.8,024.1,000.0,033.2,026.6,015.6,0000.0,0007.36,0001.38,0000.66
2024-05-09 13:38:00,SystemResetWarning,0832.0,5.00,000.00,024.8,024.1,000.0,033.2,026.6,015.7,0000.0,0007.09,0001.34,0000.66
2024-05-09 13:39:00,SystemResetWarning,0832.0,5.01,000.00,024.8,024.1,000.0,033.3,026.7,015.6,0000.0,0006.86,0001.34,0000.66
2024-05-09 13:40:00,SystemResetWarning,0832.0,5.00,000.00,024.8,024.1,000.0,033.3,026.6,015.9,0000.0,0007.76,0001.41,0000.67
2024-05-09 13:41:00,SystemResetWarning,0832.1,5.01,000.00,024.8,024.1,000.0,033.3,026.6,016.0,0000.0,0008.05,0001.40,0000.68
2024-05-09 13:42:00,SystemResetWarning,0832.1,5.01,000.00,024.8,024.1,000.0,033.3,026.6,016.2,0000.0,0008.08,0001.40,0000.69
2024-05-09 13:43:00,SystemResetWarning,0832.1,4.99,000.00,024.8,024.1,000.0,033.3,026.6,016.1,0000.0,0007.69,0001.43,0000.69
2024-05-09 13:44:00,SystemResetWarning,0832.2,4.99,000.00,024.8,024.1,000.0,033.3,026.6,016.2,0000.0,0007.77,0001.46,0000.68
2024-05-09 13:45:00,SystemResetWarning,0832.2,5.00,000.00,024.8,024.1,000.0,033.3,026.6,016.2,0000.0,0007.38,0001.49,0000.68
2024-05-09 13:46:00,SystemResetWarning,0832.2,5.02,000.00,024.8,024.0,000.0,033.3,026.6,016.6,0000.0,0006.99,0001.50,0000.70
2024-05-09 13:47:00,SystemResetWarning,0832.2,5.00,000.00,024.8,024.0,000.0,033.3,026.6,016.7,0000.0,0007.40,0001.57,0000.71
2024-05-09 13:48:00,SystemResetWarning,0832.2,5.00,000.00,024.8,024.0,000.0,033.3,026.6,016.5,0000.0,0007.75,0001.55,0000.72
2024-05-09 13:49:00,SystemResetWarning,0832.2,5.00,000.00,024.8,024.0,000.0,033.3,026.6,016.5,0000.0,0008.60,0001.58,0000.73
2024-05-09 13:50:00,SystemResetWarning,0832.2,4.99,000.00,024.7,024.0,000.0,033.3,026.6,016.8,0000.0,0009.17,0001.60,0000.74
2024-05-09 13:51:00,SystemResetWarning,0832.2,5.00,000.00,024.7,024.0,000.0,033.3,026.6,016.7,0000.0,0008.02,0001.57,0000.75
2024-05-09 13:52:00,SystemResetWarning,0832.2,5.00,000.00,024.7,024.0,000.0,033.3,026.6,016.7,0000.0,0007.66,0001.66,0000.77
2024-05-09 13:53:00,SystemResetWarning,0832.2,5.00,000.00,024.7,024.0,000.0,033.3,026.6,016.7,0000.0,0007.73,0001.73,0000.79
2024-05-09 13:54:00,SystemResetWarning,0832.3,5.00,000.00,024.7,024.0,000.0,033.3,026.6,016.7,0000.0,0008.67,0001.76,0000.81
2024-05-09 13:55:00,SystemResetWarning,0832.3,5.01,000.00,024.7,024.0,000.0,033.3,026.6,016.9,0000.0,0009.02,0001.88,0000.85
2024-05-09 13:56:00,SystemResetWarning,0832.3,5.02,000.00,024.7,024.0,000.0,033.3,026.6,016.9,0000.0,0009.64,0002.02,0000.88
2024-05-09 13:57:00,SystemResetWarning,0832.3,5.00,000.00,024.7,024.0,000.0,033.3,026.6,016.9,0000.0,0010.48,0002.22,0000.91
2024-05-09 13:58:00,SystemResetWarning,0832.3,4.99,000.00,024.7,024.0,000.0,033.3,026.6,017.2,0000.0,0010.72,0002.25,0000.93
2024-05-09 13:59:00,SystemResetWarning,0832.3,5.00,000.00,024.7,024.0,000.0,033.3,026.6,017.4,0000.0,0010.90,0002.39,0000.95
